{"data":{"norad_id":62814,"intl_designator":"2025-018J","name":"STARLINK-32843","alt_names":[],"object_type":"PAYLOAD","status":"ACTIVE","operator":null,"country":"US","launch_date":"2025-01-24","launch_site_code":"AFWTR","launch_vehicle":null,"mission":null,"orbit_class":"UNKNOWN","rcs_meters":null,"size_class":null,"mass_kg":null,"dimensions":null,"purposes":["comms"],"wikipedia_slug":null,"has_3d_model":false,"image_url":null,"decayed_at":null,"tle_current":{"epoch":"2026-05-25T04:36:00.014112Z","epoch_age_seconds":54527,"freshness":"FRESH","line1":"1 62814U 25018J   26145.19166683  .00013775  00000+0  45451-3 0  9999","line2":"2 62814  53.1608 314.0794 0000536  96.9010 263.2052 15.31721849 74881","mean_motion":15.31721849,"eccentricity":5.36e-5,"inclination_deg":53.1608,"raan_deg":314.0794,"arg_perigee_deg":96.901,"mean_anomaly_deg":263.2052,"bstar":0.00045451,"rev_number":7488,"period_min":94.011846925088,"perigee_km":470.30776895181,"apogee_km":471.04196158376,"semimajor_km":6848.8118652678,"source":"CELESTRAK","updated_at":"2026-05-25T13:38:19.774636Z"}}}